User: anonymous   Login
Location: Eaton Estates
(41.3089°N, 82.0057°W)
Time: 08:05:46
(UTC+00:00)
Language:

Chandra Rocket (1) - Orbit

View from above orbital plane
View from above orbital plane
View from above satellite
View from above satellite

Ground track
Ground track

The orbit data is extracted from the following two-line orbital elements,

1 25868U 99040C   21264.69540818  .00000394  00000-0  87710-4 0  9990
2 25868  28.4045 124.0867 4411890 328.5333  11.3114  6.56338251498524
Epoch (UTC): 21 September 2021 16:41:23
Eccentricity: 0.4411890
inclination: 28.4045°
perigee height: 355 km
apogee height: 10988 km
right ascension of ascending node: 124.0867°
argument of perigee: 328.5333°
revolutions per day: 6.56338251
mean anomaly at epoch: 11.3114°
orbit number at epoch: 49852

The dashed part of the orbit path shows where the satellite is in the earth's shadow,  

DLR